This is the latest recevied weather packets stored in our database for station/object IZ8XTV-13. If no packets are shown the sender has not sent any weather packets the latest 10 day(s).
| Time | Temp. | Humidity | Pressure | Rain* | Wind** | Luminosity | Snow |
|---|---|---|---|---|---|---|---|
| 1778167187 | 24.44° C | 83% | 1011.9 hPa | 0 mm | - | - | - |
| 1778166576 | 25° C | 81% | 1011.9 hPa | 0 mm | - | - | - |
| 1778165965 | 25° C | 80% | 1012 hPa | 0 mm | - | - | - |
| 1778165354 | 25° C | 79% | 1011.8 hPa | 0 mm | - | - | - |
| 1778164743 | 25° C | 80% | 1012 hPa | 0 mm | - | - | - |
| 1778164132 | 25° C | 75% | 1012.1 hPa | 0 mm | - | - | - |
| 1778163521 | 25.56° C | 74% | 1012.2 hPa | 0 mm | - | - | - |
| 1778162910 | 25.56° C | 73% | 1012.3 hPa | 0 mm | - | - | - |
| 1778162299 | 25° C | 74% | 1012.3 hPa | 0 mm | - | - | - |
| 1778161688 | 25.56° C | 74% | 1012.4 hPa | 0 mm | - | - | - |
| 1778161077 | 25° C | 76% | 1012.4 hPa | 0 mm | - | - | - |
| 1778160466 | 25° C | 76% | 1012.5 hPa | 0 mm | - | - | - |
| 1778159855 | 25° C | 77% | 1012.6 hPa | 0 mm | - | - | - |
| 1778159244 | 25.56° C | 76% | 1012.7 hPa | 0 mm | - | - | - |
| 1778158633 | 25° C | 76% | 1012.9 hPa | 0 mm | - | - | - |
| 1778158022 | 25° C | 76% | 1013 hPa | 0 mm | - | - | - |
| 1778157411 | 25° C | 77% | 1013.2 hPa | 0 mm | - | - | - |
| 1778156800 | 25.56° C | 77% | 1013.3 hPa | 0 mm | - | - | - |
| 1778156189 | 25° C | 79% | 1013.2 hPa | 0 mm | - | - | - |
| 1778155577 | 25° C | 79% | 1013.3 hPa | 0 mm | - | - | - |
| 1778154966 | 24.44° C | 80% | 1013.4 hPa | 0 mm | - | - | - |
| 1778154355 | 24.44° C | 86% | 1013.5 hPa | 0 mm | - | - | - |
| 1778153745 | 25° C | 86% | 1013.6 hPa | 0 mm | - | - | - |
| 1778153132 | 24.44° C | 87% | 1013.8 hPa | 0 mm | - | - | - |
| 1778152520 | 25° C | 87% | 1013.9 hPa | 0 mm | - | - | - |
* Rain latest hour (hover to see other rain measurements)
** Current wind speed in m/s (hover to see current wind gust speed)